Zurück zum Katalog

STARLINK-35704

AktivKommunikationVLEO
NORAD 66221·PAYLOAD·🇺🇸 United States

Gestartet Oct 28, 2025 von Vandenberg Space Force Base

Loading…

Nächste Überflüge (nächste 24 Stunden)

TLE

AktuellSource: CelesTrak SupGP

Epoche: Sep 15, 2026, 03:13 UTC

1 66221C 25244R   26258.13451389 -.00027940  00000+0 -82522-3 0  2584
2 66221  53.1598  68.6330 0000860  93.7884 246.9986 15.34414921    18

Verfolge STARLINK-35704 in Echtzeit mit AllMySat

Download on the App Store